Weather History for Page, AZ

Change the Weather History Date:

Monday, July 28, 2014

  Actual Average Record
Temperature  
Mean Temperature 83 °F -  
Max Temperature 93 °F 95 °F 104 °F (1960)
Min Temperature 73 °F 68 °F 60 °F (1997)
Cooling Degree Days 18    
Growing Degree Days 33 (Base 50)    
Moisture  
Dew Point 52 °F    
Average Humidity 34    
Maximum Humidity 50    
Minimum Humidity 15    
Precipitation  
Precipitation 0.00 in - - ()
Sea Level Pressure  
Sea Level Pressure 30.04 in    
Wind  
Wind Speed 4 mph (SW)    
Max Wind Speed 10 mph    
Max Gust Speed 16 mph    
Visibility 10 miles    
Events Thunderstorm    
Averages and records for this station are not official NWS values.
T = Trace of Precipitation, MM = Missing Value Source: NWS Daily Summary

Daily Weather History Graph

Daily Weather History Graph

Search for Another Location

Airport:

Trip Planner

Search our weather history database for the weather conditions in past years. The results will help you decide how hot, cold, wet, or windy it might be!

Date:

Astronomy

Jul. 28, 2014 Rise Set
Actual Time 5:28 AM MST 7:36 PM MST
Civil Twilight 4:59 AM MST 8:05 PM MST
Nautical Twilight 4:23 AM MST 8:40 PM MST
Astronomical Twilight 3:45 AM MST 9:18 PM MST
Moon 7:08 AM MST (7/28) 8:24 PM MST (7/28)
Length of Visible Light 15h 06m
Length of Day
14h 08m
Waxing Crescent, 3% of the Moon is Illuminated
Jul 28
Waxing Crescent
Aug 3
First Quarter
Aug 10
Full
Aug 17
Last Quarter
Aug 25
New

Hourly Weather History & Observations

Time (MST) Temp. Heat Index Dew Point Humidity Pressure Visibility Wind Dir Wind Speed Gust Speed Precip Events Conditions
12:53 AM 78.1 °F - 55.0 °F 45% 30.01 in 10.0 mi WSW 3.5 mph - N/A   Overcast
1:53 AM 75.9 °F - 55.9 °F 50% 30.01 in 10.0 mi Calm Calm - 0.00 in   Partly Cloudy
2:53 AM 75.9 °F - 55.0 °F 48% 30.03 in 10.0 mi SW 3.5 mph - N/A   Scattered Clouds
3:53 AM 75.0 °F - 54.0 °F 48% 30.02 in 10.0 mi SSW 4.6 mph - N/A   Clear
4:53 AM 73.9 °F - 52.0 °F 46% 30.02 in 10.0 mi SSW 5.8 mph - N/A   Clear
5:53 AM 73.9 °F - 53.1 °F 48% 30.04 in 10.0 mi SSW 3.5 mph - N/A   Clear
6:53 AM 75.2 °F - 55.4 °F 50% 30.26 in 10.0 mi SW 4.6 mph - N/A   Clear
7:53 AM 79.0 °F - 54.0 °F 42% 30.07 in 10.0 mi West 4.6 mph - N/A   Clear
8:53 AM 82.0 °F 81.3 °F 54.0 °F 38% 30.07 in 10.0 mi Variable 3.5 mph - N/A   Clear
9:53 AM 82.9 °F 81.9 °F 54.0 °F 37% 30.08 in 10.0 mi Variable 4.6 mph - N/A   Clear
10:53 AM 86.0 °F 84.2 °F 53.6 °F 33% 30.26 in 10.0 mi Variable 5.8 mph - N/A   Clear
11:53 AM 91.4 °F 89.1 °F 53.6 °F 28% 30.24 in 10.0 mi South 8.1 mph - N/A   Clear
12:53 PM 91.0 °F - 51.1 °F 25% 29.99 in 10.0 mi WNW 8.1 mph - N/A   Mostly Cloudy
1:53 PM 91.0 °F - 48.9 °F 23% 29.96 in 10.0 mi Calm Calm - N/A   Scattered Clouds
2:53 PM 91.9 °F - 46.9 °F 21% 29.94 in 10.0 mi West 8.1 mph - N/A   Partly Cloudy
3:53 PM 91.0 °F - 48.9 °F 23% 29.94 in 10.0 mi West 5.8 mph 16.1 mph N/A   Scattered Clouds
4:46 PM 89.1 °F - 48.0 °F 24% 30.15 in 10.0 mi WSW 4.6 mph - 0.00 in Thunderstorm Mostly Cloudy
4:53 PM 90.0 °F - 48.9 °F 24% 29.94 in 10.0 mi Variable 5.8 mph - 0.00 in Thunderstorm Mostly Cloudy
5:12 PM 87.1 °F - 50.0 °F 28% 30.15 in 10.0 mi SW 9.2 mph - N/A   Scattered Clouds
5:53 PM 87.1 °F - 50.0 °F 28% 29.95 in 10.0 mi Variable 3.5 mph - N/A   Scattered Clouds
6:53 PM 82.9 °F 81.8 °F 53.1 °F 36% 29.98 in 10.0 mi SE 10.4 mph - N/A   Partly Cloudy
7:53 PM 81.0 °F 80.5 °F 54.0 °F 39% 29.98 in 10.0 mi SE 5.8 mph - N/A   Clear
8:53 PM 81.0 °F 80.4 °F 53.1 °F 38% 29.99 in 10.0 mi SSE 6.9 mph - N/A   Clear
9:53 PM 81.0 °F - 52.0 °F 36% 30.01 in 10.0 mi South 3.5 mph - N/A   Clear
10:53 PM 80.1 °F - 50.0 °F 35% 30.00 in 10.0 mi Calm Calm - N/A   Clear
11:53 PM 79.0 °F - 55.9 °F 45% 29.98 in 10.0 mi Calm Calm - N/A   Clear